Location: Kitchener
(43.4500°N, 80.5000°W)
Time: 01:41:38
(UTC-04:00)

ISS - Visible Passes

Search period start: 24 September 2018 00:00
Search period end: 04 October 2018 00:00
Orbit: 403 x 409 km, 51.6° (Epoch: 24 September)

Date Brightness Start Highest point End Pass type
(mag) Time Alt. Az. Time Alt. Az. Time Alt. Az.
24 Sep -3.8 20:28:24 10° WSW 20:31:42 79° NNW 20:33:45 21° NE visible
24 Sep -0.5 22:05:53 10° WNW 22:06:27 13° WNW 22:06:27 13° WNW visible
25 Sep -3.7 19:36:38 10° SW 19:39:52 58° SE 19:43:08 10° ENE visible
25 Sep -2.1 21:13:37 10° W 21:16:34 29° NNW 21:16:52 28° N visible
26 Sep -2.6 20:21:25 10° W 20:24:34 40° NNW 20:27:09 14° NE visible
26 Sep -0.5 21:59:11 10° NW 21:59:50 13° NW 21:59:50 13° NW visible
27 Sep -1.8 21:06:56 10° WNW 21:09:35 22° N 21:10:02 21° N visible
28 Sep -2.0 20:14:38 10° WNW 20:17:30 26° NNW 20:20:10 11° NE visible
28 Sep -0.5 21:52:15 10° NW 21:52:50 13° NW 21:52:50 13° NW visible
29 Sep -1.7 21:00:08 10° NW 21:02:36 19° N 21:02:55 19° N visible
30 Sep -1.7 20:07:53 10° WNW 20:10:27 21° N 20:12:58 10° NE visible
30 Sep -0.6 21:45:02 10° NW 21:45:38 13° NW 21:45:38 13° NW visible
01 Oct -1.8 20:53:04 10° NW 20:55:36 20° N 20:55:39 20° N visible
02 Oct -1.7 20:00:56 10° NW 20:03:25 19° N 20:05:39 11° NE visible
02 Oct -0.8 21:37:35 10° NW 21:38:19 15° NW 21:38:19 15° NW visible
03 Oct -2.1 20:45:42 10° NW 20:48:19 25° N 20:48:19 25° N visible
